Morris, IL

6:05 AM CDT on August 27, 2016 (GMT -0500)
Morris

Weather History for KC09 - July, 2012

Change the Weather History Date:

Sunday, July 1, 2012

  Actual Average (KLOT) Record (KLOT)
Temperature  
Mean Temperature 76 °F 74 °F  
Max Temperature 84 °F 84 °F 91 °F (2002)
Min Temperature 67 °F 64 °F 54 °F (2010)
Degree Days  
Heating Degree Days 0 0  
Month to date heating degree days 0  
Since 1 June heating degree days 33  
Since 1 July heating degree days 0  
Cooling Degree Days 10 9  
Month to date cooling degree days 9  
Year to date cooling degree days 247  
Since 1 June cooling degree days 189  
Growing Degree Days 26 (Base 50)    
Moisture  
Dew Point 70 °F    
Average Humidity 87    
Maximum Humidity 100    
Minimum Humidity 63    
Precipitation  
Precipitation 0.19 in 0.13 in 0.61 in (1999)
Month to date precipitation 0.13  
Year to date precipitation 19.17  
Sea Level Pressure  
Sea Level Pressure 29.94 in    
Wind  
Wind Speed 2 mph (SSE)    
Max Wind Speed 20 mph    
Max Gust Speed 32 mph    
Visibility 7 miles    
Events Rain , Thunderstorm    
T = Trace of Precipitation, MM = Missing Value Source: NWS Daily Summary

Daily Weather History Graph

Daily Weather History Graph

Search for Another Location

Airport or City:

Trip Planner

Search our weather history database for the weather conditions in past years. The results will help you decide how hot, cold, wet, or windy it might be!

Date:

Astronomy

Jul. 01, 2012 Rise Set
Actual Time 5:24 AM CDT 8:31 PM CDT
Civil Twilight 4:50 AM CDT 9:04 PM CDT
Nautical Twilight 4:07 AM CDT 9:47 PM CDT
Astronomical Twilight 3:15 AM CDT 10:39 PM CDT
Moon 6:33 PM CDT (7/1) 3:11 AM CDT (7/1)
Length of Visible Light 16h 14m
Length of Day
15h 06m
Waxing Gibbous, 94% of the Moon is Illuminated
Jul 1
Waxing Gibbous
Jul 3
Full
Jul 10
Last Quarter
Jul 18
New
Jul 26
First Quarter

Hourly Weather History & Observations

Time (CDT) Temp. Heat Index Dew Point Humidity Pressure Visibility Wind Dir Wind Speed Gust Speed Precip Events Conditions
12:15 AM 69.4 °F - 68.2 °F 96% 29.87 in 4.0 mi Calm Calm - N/A   Clear
12:35 AM 70.0 °F - 69.3 °F 98% 29.87 in 4.0 mi Calm Calm - N/A   Clear
12:55 AM 68.9 °F - 67.6 °F 96% 29.88 in 3.0 mi Calm Calm - N/A   Clear
1:15 AM 69.1 °F - 68.2 °F 97% 29.89 in 3.0 mi Calm Calm - N/A   Clear
1:35 AM 69.3 °F - 68.2 °F 96% 29.89 in 4.0 mi Calm Calm - N/A   Clear
1:55 AM 68.9 °F - 68.0 °F 97% 29.89 in 5.0 mi Calm Calm - N/A   Clear
2:15 AM 69.8 °F - 68.0 °F 94% 29.89 in 7.0 mi Calm Calm - N/A   Clear
2:35 AM 69.4 °F - 67.3 °F 93% 29.89 in 5.0 mi Calm Calm - N/A   Clear
2:55 AM 68.0 °F - 66.4 °F 95% 29.89 in 3.0 mi SSE 3.5 mph - N/A   Clear
3:15 AM 67.8 °F - 66.9 °F 97% 29.89 in 3.0 mi Calm Calm - N/A   Clear
3:35 AM 68.2 °F - 67.3 °F 97% 29.89 in 3.0 mi Calm Calm - N/A   Clear
3:55 AM 68.0 °F - 66.2 °F 94% 29.90 in 3.0 mi Calm Calm - N/A   Clear
4:15 AM 68.0 °F - 68.0 °F 100% 29.89 in 3.0 mi Calm Calm - N/A   Clear
4:35 AM 68.4 °F - 67.6 °F 98% 29.90 in 3.0 mi Calm Calm - N/A   Scattered Clouds
4:55 AM 68.2 °F - 67.5 °F 98% 29.90 in 3.0 mi Calm Calm - N/A   Clear
5:15 AM 68.7 °F - 68.0 °F 98% 29.90 in 3.0 mi Calm Calm - N/A   Clear
5:35 AM 67.6 °F - 66.9 °F 98% 29.91 in 1.8 mi Calm Calm - N/A   Mist
5:55 AM 68.5 °F - 68.0 °F 98% 29.90 in 2.0 mi Calm Calm - N/A   Clear
6:15 AM 69.3 °F - 68.5 °F 98% 29.91 in 1.8 mi Calm Calm - N/A   Mist
6:35 AM 69.8 °F - 69.8 °F 100% 29.91 in 1.8 mi Calm Calm - N/A   Mist
6:55 AM 71.6 °F - 71.6 °F 100% 29.92 in 1.8 mi Calm Calm - N/A   Mist
7:15 AM 73.0 °F - 72.0 °F 96% 29.93 in 2.5 mi Calm Calm - N/A   Clear
7:35 AM 74.5 °F - 71.8 °F 91% 29.93 in 4.0 mi Calm Calm - N/A   Clear
7:55 AM 75.9 °F - 72.9 °F 90% 29.94 in 4.0 mi Calm Calm - N/A   Clear
8:15 AM 77.0 °F - 72.1 °F 85% 29.94 in 7.0 mi Calm Calm - N/A   Clear
8:35 AM 77.7 °F - 70.2 °F 77% 29.95 in 10.0 mi East 3.5 mph - N/A   Scattered Clouds
8:55 AM 78.3 °F - 73.0 °F 84% 29.96 in 7.0 mi Calm Calm - N/A   Scattered Clouds
9:15 AM 79.7 °F - 71.8 °F 77% 29.97 in 7.0 mi Calm Calm - N/A   Scattered Clouds
9:35 AM 79.9 °F - 70.5 °F 73% 29.98 in 10.0 mi South 3.5 mph - N/A   Mostly Cloudy
9:55 AM 79.7 °F - 71.2 °F 75% 29.98 in 10.0 mi Calm Calm - N/A Rain Light Rain
10:15 AM 79.9 °F - 72.5 °F 78% 29.96 in 10.0 mi SSE 3.5 mph - N/A   Scattered Clouds
10:35 AM 81.7 °F 85.8 °F 71.1 °F 70% 29.98 in 10.0 mi SSE 4.6 mph - N/A   Clear
10:55 AM 81.0 °F 84.4 °F 70.0 °F 69% 29.95 in 10.0 mi East 5.8 mph - N/A   Scattered Clouds
11:15 AM 82.4 °F 86.5 °F 70.5 °F 67% 29.97 in 10.0 mi Calm Calm - N/A Thunderstorm Thunderstorm
11:35 AM 71.8 °F - 65.3 °F 80% 30.06 in 3.0 mi WSW 19.6 mph 32.2 mph 0.11 in Rain , Thunderstorm Heavy Thunderstorms and Rain
11:55 AM 68.0 °F - 64.4 °F 88% 30.01 in 3.0 mi Calm Calm - N/A Rain , Thunderstorm Thunderstorms and Rain
12:15 PM 68.5 °F - 66.2 °F 92% 30.02 in 7.0 mi Calm Calm - N/A Thunderstorm Scattered Clouds
12:35 PM 70.0 °F - 66.2 °F 88% 30.04 in 10.0 mi Calm Calm - 0.01 in Rain , Thunderstorm Thunderstorms and Rain
12:55 PM 69.3 °F - 66.6 °F 91% 30.03 in 5.0 mi NNE 3.5 mph - 0.03 in Rain , Thunderstorm Thunderstorms and Rain
1:15 PM 69.1 °F - 67.3 °F 94% 30.00 in 3.0 mi North 3.5 mph - 0.04 in Rain , Thunderstorm Thunderstorms and Rain
1:35 PM 70.0 °F - 68.0 °F 93% 29.95 in 7.0 mi ENE 4.6 mph - 0.05 in Rain Light Rain
1:55 PM 71.6 °F - 69.8 °F 94% 29.95 in 10.0 mi NW 3.5 mph - N/A   Clear
2:15 PM 74.3 °F - 70.7 °F 88% 29.95 in 10.0 mi Calm Calm - N/A   Clear
2:35 PM 76.5 °F - 70.3 °F 81% 29.93 in 10.0 mi ESE 4.6 mph - N/A   Clear
2:55 PM 78.6 °F - 71.1 °F 78% 29.93 in 10.0 mi SSE 8.1 mph - N/A   Clear
3:15 PM 78.8 °F - 70.9 °F 77% 29.93 in 10.0 mi SSE 4.6 mph - N/A   Clear
3:35 PM 80.2 °F 83.5 °F 70.0 °F 71% 29.94 in 10.0 mi South 5.8 mph - N/A   Clear
3:55 PM 81.5 °F 85.3 °F 70.3 °F 69% 29.95 in 10.0 mi South 6.9 mph - N/A   Clear
4:15 PM 82.9 °F 87.5 °F 70.9 °F 67% 29.96 in 10.0 mi SSE 4.6 mph - N/A   Clear
4:35 PM 83.1 °F 87.6 °F 70.7 °F 66% 29.95 in 10.0 mi SSE 4.6 mph - N/A   Clear
4:55 PM 84.2 °F 89.9 °F 72.0 °F 67% 29.95 in 10.0 mi Calm Calm - N/A   Clear
5:15 PM 84.2 °F 88.7 °F 70.5 °F 63% 29.94 in 10.0 mi South 5.8 mph - N/A   Clear
5:35 PM 83.3 °F 88.7 °F 72.3 °F 69% 29.93 in 10.0 mi SSE 6.9 mph - N/A   Clear
5:55 PM 82.9 °F 88.3 °F 72.1 °F 70% 29.92 in 10.0 mi SSE 5.8 mph - N/A   Clear
6:15 PM 82.9 °F 88.5 °F 72.5 °F 71% 29.91 in 10.0 mi South 5.8 mph - N/A   Clear
6:35 PM 82.6 °F 88.1 °F 72.7 °F 72% 29.91 in 10.0 mi South 5.8 mph - N/A   Clear
6:55 PM 81.7 °F 87.1 °F 73.6 °F 76% 29.91 in 10.0 mi SSE 5.8 mph - N/A   Clear
7:15 PM 80.8 °F 85.6 °F 73.4 °F 78% 29.92 in 10.0 mi SSE 4.6 mph - N/A   Clear
7:35 PM 79.7 °F - 73.4 °F 81% 29.91 in 10.0 mi South 4.6 mph - N/A   Clear
7:55 PM 78.6 °F - 72.9 °F 82% 29.92 in 10.0 mi South 3.5 mph - N/A   Clear
8:15 PM 77.0 °F - 73.9 °F 90% 29.92 in 7.0 mi South 3.5 mph - N/A   Clear
8:35 PM 76.3 °F - 73.4 °F 91% 29.92 in 7.0 mi South 3.5 mph - N/A   Clear
8:55 PM 75.6 °F - 73.2 °F 92% 29.93 in 7.0 mi South 4.6 mph - N/A   Clear
9:15 PM 74.7 °F - 72.5 °F 93% 29.94 in 7.0 mi South 4.6 mph - N/A   Clear
9:35 PM 74.3 °F - 72.5 °F 94% 29.94 in 7.0 mi South 3.5 mph - N/A   Clear
9:55 PM 74.3 °F - 72.5 °F 94% 29.95 in 7.0 mi SSE 4.6 mph - N/A   Clear
10:15 PM 74.1 °F - 72.3 °F 94% 29.95 in 7.0 mi South 4.6 mph - N/A   Clear
10:35 PM 73.9 °F - 72.5 °F 95% 29.96 in 5.0 mi Calm Calm - N/A   Clear
10:55 PM 73.8 °F - 72.0 °F 94% 29.95 in 5.0 mi SSE 3.5 mph - N/A   Clear
11:15 PM 73.4 °F - 71.6 °F 94% 29.96 in 5.0 mi Calm Calm - N/A   Clear
11:35 PM 73.4 °F - 71.8 °F 95% 29.96 in 5.0 mi Calm Calm - N/A   Clear
11:55 PM 73.6 °F - 71.8 °F 94% 29.96 in 5.0 mi SE 3.5 mph - N/A   Clear